Retour au catalogue

SL-3 R/B

ActifPO
NORAD 6393·ROCKET BODY·🇷🇺 Russia

Lancé Mar 20, 1973 depuis Plesetsk Cosmodrome

Loading…

Prochains Passages (prochaines 24 heures)

TLE

FraisSource: Space-Track

Époque: Sep 14, 2026, 08:07 UTC

1 06393U 73015B   26257.33864012  .00000037  00000-0  14570-4 0  9997
2 06393  81.2538 293.1547 0058785 150.4542 209.9970 14.05448841740854

Suivez SL-3 R/B en temps réel avec AllMySat

Download on the App Store